Location: G�ndlingen
(48.0142°N, 7.6396°E)
Time: 08:02:30
(UTC+00:00)

Lacrosse 5 rocket - Pass Details

Date: 05 July 2020
Orbit: 464 x 632 km, 57.0° (Epoch: 04 August)

Event Time Altitude Azimuth Distance (km) Brightness Sun altitude
Rises 22:54:13 0° 304° (NW) 2,735 5.5 -18.8°
Reaches altitude 10° 22:56:43 10° 315° (NW) 1,806 4.7 -18.8°
Maximum altitude 23:00:21 30° 18° (NNE) 945 3.1 -18.9°
Drops below altitude 10° 23:03:48 10° 82° (E) 1,714 3.8 -19.0°
Sets 23:06:07 0° 93° (E) 2,569 4.6 -19.0°
